TEMELIN Weather Reports


Display with metric or nautical units.
time (UTC)temp
F
wind
direction
speed
MPH
gust
MPH
rain 1hr
in
rain 24hr
in
rain mn
in
humidity
%
barometer
mb
20260904061822 63 220 5.0 0.0 0.00 0.00 0.00 77
20260904051822 61 210 5.0 0.0 0.00 0.00 0.00 82
20260904042224 63 200 5.0 0.0 0.00 0.00 0.00 77
20260904031821 63 240 5.0 0.0 0.00 0.00 0.00 72
20260904021823 63 240 5.0 0.0 0.00 0.00 0.00 77
20260904012124 61 220 5.0 0.0 0.00 0.00 0.00 82
20260904001822 63 200 5.0 0.0 0.00 0.00 0.00 77
20260903231822 61 210 5.0 0.0 0.00 0.00 0.00 87
20260903222224 61 240 7.0 0.0 0.00 0.00 0.00 87
20260903211822 63 250 7.0 0.0 0.00 0.00 0.00 77
20260903201822 61 250 5.0 0.0 0.00 0.00 0.00 82
20260903192031 63 270 7.0 0.0 0.00 0.00 0.00 77
20260903181822 66 280 12.0 0.0 0.00 0.00 0.00 63
20260903171835 68 280 16.0 29.0 0.00 0.00 0.00 56
20260903162138 72 280 9.0 0.0 0.00 0.00 0.00 46
20260903151823 72 280 9.0 0.0 0.00 0.00 0.00 49
20260903141823 73 260 14.0 0.0 0.00 0.00 0.00 43
20260903132031 77 280 12.0 0.0 0.00 0.00 0.00 38
20260903121822 73 290 12.0 0.0 0.00 0.00 0.00 40
20260903111817 72 280 12.0 0.0 0.00 0.00 0.00 46
20260903102220 70 300 9.0 0.0 0.00 0.00 0.00 46
20260903091819 68 280 12.0 0.0 0.00 0.00 0.00 56
20260903081818 66 280 9.0 0.0 0.00 0.00 0.00 59
20260903072032 64 250 5.0 0.0 0.00 0.00 0.00 67